星链-1690 (STARLINK-1690 )

导读

STARLINK-1690是美国SpaceX公司星链星座的卫星,于2020年9月3日发射升空,属于星链计划大规模组网部署中的一颗卫星。星链旨在构建全球低轨卫星互联网,为全球提供高速低时延宽带服务,填补偏远地区网络覆盖空白。这颗卫星运行在近地轨道,助力星链星座实现全球网络覆盖目标,同时也引发了太空拥堵等相关讨论。

Basic Information
目录编号:
46358
目录名称:
STARLINK-1690
国际标识:
2020-062AK
轨道中心:
EARTH
卫星名称:
星链-1690
卫星全名:
星链-1690 (STARLINK-1690 )
卫星状态:
已陨落 最后检测时间 2024-10-29
发射日期:
2020-09-03 UTC
国别 :
美国 (US)
星等 :
--
Orbit Information
数据来源 国际轨道数据
星历时间: 2024-10-30T01:42:38+0800
轨道信息已过期592天
半长轴: 6554.447km
偏心率: 0.0008607
轨道倾角: 53.023°
近地点辐角 314.881°
升交点赤经 57.589°
平近点角 156.736°
近地点: 170.67km
远地点: 181.954km
周期: 88.016分钟
每日圈数: 16.36058
Detailed Information
固有亮度:
5
最大亮度:
2.5
卫星平台:
Starlink V1.0
覆盖范围:
全球
运营商:
太空探索技术公司
运营商所在国:
美国
制造商(研发单位):
太空探索技术公司
制造商所在国:
美国
使用方式:
暂无
Satellite Introduction
星链(Starlink)计划是由太空探索技术公司(SpaceX)提出的一个巨型低轨卫星互联网星座项目,计划在2019年至2024年间在太空搭建由约1.2万颗卫星组成的“星链”网络,其中1584颗将部署在地球上空550千米处的近地轨道,并从2020年开始工作。该卫星仍在工作。